FENGYUN 1C DEB, 29868

Orbit data source: Space-Track

FENGYUN 1C DEB, 29868 is space debris in SSO originally from a launch on Mon, 10 May 1999 UTC launched from the Taiyaun Space Center, China (TSC). Fengyun 1C debris stems from the Chinese weather satellite Fengyun-1C, which was intentionally destroyed by a Chinese anti-satellite missile in 2007. This event dramatically increased the amount of space debris, with thousands of trackable fragments posing hazards to satellites and human spaceflight. The Fengyun 1C debris cloud has become a focal point in discussions about space sustainability and the need for international regulations to prevent the creation of new debris.

Loading next visibility...
Identifier
29868, 1999-025FN
Orbit
SSO
Country
Flag of CNCN / PRC
Related business
Manufacturer
Unknown
Mission
Spacecraft
Bus & Motor
Unknown
Mass
Unknown
Launch date (UTC)
1999-05-10 (27 years ago)
Launch vehicle
Unknown
Launch site
Taiyaun Space Center, China (TSC)
Object type
Payload
Rocket body
Debris
Shape & HBR
Unknown shape, 0.1 m
Radar Cross Section
Small (<0.1 m²)

Expand to show TLE details & history
Last TLE update: 9 hours ago

TLE from 9 hours ago
0 FENGYUN 1C DEB
1 29868U 99025FN  26265.12365576  .00003281  00000-0  31196-3 0  9991
2 29868  97.9131 312.6884 0187342 163.1617 197.5931 14.81821069 44886
Epoch: 2026-09-22T02:58Z
TLE epoch observation values (Epoch: 2026-09-22T02:58:03.857Z)
Latitude
Longitude
-92.82132°
Altitude
751.889 km
Speed
7.411 km/s
True Right ascension
20h 50m 45s
True Declination
0° 00' 00"
Sunlit
Object was in full shadow at epoch
Visualization orbit readout
Latitude
Unknown
Longitude
Unknown
Altitude
Unknown
Speed
Unknown
Apparent Right ascension
Unknown
Apparent Declination
Unknown
Sunlit
N/A
Visualization observer readout
Local Sidereal Time
05:23:13
Azimuth
Unknown
Elevation
Unknown
Doppler factor
Unknown
Orbital elements
Apogee altitude
751.735 km
Perigee altitude
489.503 km
Semi-major axis
6,998.756 km
Eccentricity
0.01873
Inclination
97.9131°
RAAN
312.6884°
Arg. of periapsis
163.1617°
True anomaly
196.95842°
Mean anomaly
197.5931°
Eccentric anomaly
197.27436°
Mean motion
3.70691 °/min
Orbital period
97.12 mins
BSTAR
0.00031196
Loading maneuver chart data...
Computing Atmospheric mass density...

Documentation

Showing up to 5 results
|